珠海一号 OHS-02B星 (ZHUHAI-1 OHS-02)

导读

ZHUHAI-1 OHS-02(珠海一号OHS-02B星),是中国于2018年4月26日由长征十一号运载火箭,以“一箭五星”方式在酒泉卫星发射中心送入太空的高光谱遥感卫星,隶属于珠海欧比特宇航科技股份有限公司运营的珠海一号商业微纳卫星星座。卫星目前仍在轨运行,主要服务于国土资源监测、环境保护、生态评估等遥感应用。

Basic Information
目录编号:
43441
目录名称:
ZHUHAI-1 OHS-02
国际标识:
2018-040C
轨道中心:
EARTH
卫星名称:
珠海一号 OHS-02B星
卫星全名:
珠海一号 OHS-02B星 (ZHUHAI-1 OHS-02)
卫星状态:
在轨 (已飞行3053 天)
发射日期:
2018-04-26 UTC
国别 :
中国 (CN)
星等 :
--
Orbit Information
数据来源 国际轨道数据 AOE轨道数据
星历时间 2026-09-04T06:47:20+0800
8小时前
查看轨道信息
2026-09-03T18:00:00+0800
21小时前
查看轨道信息
半长轴 6863.353km 6863.375km
偏心率 0.0007599 0.000768
轨道倾角 97.035° 97.036°
近地点辐角 320.732° 324.356°
升交点赤经 266.567° 266.065°
平近点角 39.337° 348.609°
近地点 480km 479.966km
远地点 490.432km 490.51km
周期 94.311分钟 94.312分钟
每日圈数 15.268567 15.268493
Detailed Information
平衡模式:
三轴稳定
覆盖范围:
全球
运营商:
珠海欧比特宇航科技股份有限公司
运营商所在国:
中国
制造商(研发单位):
珠海欧比特宇航科技股份有限公司
制造商所在国:
中国
使用方式:
暂无
Satellite Introduction
珠海一号(Zhuhai-1)卫星星座是由珠海欧比特宇航科技股份有限公司发射并运营的商业遥感微纳卫星星座,整个星座由34颗遥感卫星组成,分别是2颗视频试验卫星、10颗视频卫星、10颗高光谱卫星、2颗高分光学卫星、2颗SAR卫星和8颗红外卫星。该卫星仍在工作。
2D Orbit Map
3D Orbit Map
Orbit Altitude Analysis Chart
Orbit Inclination Analysis Chart
Orbit Comprehensive Analysis Chart
View Comprehensive Chart
Conjunction Data List
Event ID Objects TCA Miss Dist (km) Collision Risk Probability Collision Risk Index (CRI) Action
CDM_260904-111904-344105-558324
2026-09-04T
11:19:05+0000
0.869 km
远距离
4.247998E-5 中风险 0.68
CDM_260904-155404-344105-952622
2026-09-04T
15:54:43+0000
0.897 km
远距离
3.556397E-5 中风险 0.66
CDM_260902-120504-344105-549022
2026-09-02T
12:05:01+0000
1.388 km
极远距离
8.395352E-6 低风险 0.53
CDM_260903-100204-344105-741523
2026-09-03T
10:02:37+0000
1.285 km
极远距离
8.176575E-6 低风险 0.53
CDM_260905-034504-344106-826121
2026-09-05T
03:45:17+0000
1.467 km
极远距离
4.301527E-6 低风险 0.48
CDM_260903-101504-344106-332724
2026-09-03T
10:15:57+0000
1.918 km
极远距离
3.120609E-6 低风险 0.45
CDM_260902-103004-344105-549023
2026-09-02T
10:30:43+0000
1.971 km
极远距离
2.880102E-6 低风险 0.44
CDM_260904-142004-344105-714722
2026-09-04T
14:20:45+0000
1.959 km
极远距离
2.314039E-6 低风险 0.42
CDM_260905-074904-344105-904521
2026-09-05T
07:49:33+0000
2.318 km
极远距离
1.992968E-6 低风险 0.41
CDM_260905-091204-344106-642321
2026-09-05T
09:12:51+0000
2.145 km
极远距离
1.902628E-6 低风险 0.41